True but they're all listed as launch 061 of 2011.
On 30/10/11 18:00, i8cvs wrote:
Hi Nigel, W8IFF
The inclination is not the same for all so that those OBJECTS seems to belong to three different launces.
73" de
i8CVS Domenico
----- Original Message ----- From: "Nigel A. Gunn, W8IFF/G8IFF"nigel@ngunn.net To:amsat-bb@amsat.org Sent: Sunday, October 30, 2011 5:42 PM Subject: [amsat-bb] New Launch
Who launched these?
OBJECT A 1 37849U 11061A 11302.66421759 +.00000178 +00000-0 +10000-3 0 00099 2 37849 098.7116 238.9909 0001984 118.3667 333.6358 14.22213241000181 OBJECT B 1 37850U 11061B 11302.62545336 +.00000480 +00000-0 +51357-4 0 00069 2 37850 101.6952 233.0228 0253352 289.9995 191.7441 14.77439893000169 OBJECT C 1 37851U 11061C 11302.94063822 +.00148715 +00000-0 +11864-1 0 00048 2 37851 101.7071 233.4846 0255164 289.2247 068.1438 14.77565457000225 OBJECT D 1 37852U 11061D 11302.94064686 +.00001317 +00000-0 +11875-3 0 00172 2 37852 101.7026 233.4847 0255574 288.8425 068.5226 14.77447189000225 OBJECT E 1 37853U 11061E 11302.94060934 +.00035908 +00000-0 +29140-2 0 00036 2 37853 101.6965 233.4869 0254859 289.2129 068.1595 14.77516832000229 OBJECT F 1 37854U 11061F 11303.54982327 .00014649 00000-0 11859-2 0 30 2 37854 101.6986 234.3636 0256120 286.9239 070.4027 14.77691305 296 OBJECT G 1 37855U 11061G 11302.87272701 .00005061 00000-0 41578-3 0 34 2 37855 101.7081 233.4066 0257546 289.0631 068.2617 14.77654712 194 OBJECT H 1 37856U 11061H 11303.53330434 .00817553 77249-5 81830-3 0 44 2 37856 107.3170 237.6855 0390613 329.7694 028.1472 15.39999395 318
Sent via AMSAT-BB@amsat.org. Opinions expressed are those of the author. Not an AMSAT-NA member? Join now to support the amateur satellite program! Subscription settings: http://amsat.org/mailman/listinfo/amsat-bb